Participated 4 times
Between 2021 and 2025
Victor Campenaerts, Belgium
Tour de France 2026 starts from Barcelona, Spain in

Stats and Facts from
Tour de France.

2026   2025   2024   2023  2022  2021  2020  2019   2018  2017   2016   2015  2014  2013   2012   2011  2010   2009   2008   2007   2006   2005   2004   2003   2002   2001   2000   1999   1998   1997  1996   1995   1994   1993   1992  1991   1990   1989   1988   1987   1986   1985   1984   1983  1982  1981   1980   1979  1978  1977   1976  1975  1974  1973   1972   1971   1970  1969   1968   1967   1966   1965  1964  1963   1962   1961   1960   1959   1958   1957  1956   1955   1954   1953   1952  1951  1950  1949   1948  1947  1939   1938   1937   1936   1935   1934   1933  1932   1931   1930  1929   1928   1927   1926  1925  1924  1923   1922   1921   1920   1919  1914   1913   1912   1911   1910  1909   1908   1907   1906  1905  1904   1903 

Tourstats
Sitemap

After stage 21 - 2025:
 16451 starters.
  5464 different riders.
  689 teams.
  2398 stages.
  470 restdays.
  466506.50 km.
  5925 abandoned riders.

Click map for 2012 route.
Facts from Tour de France 2012
  |   Stages.  |   Stage winners.  |   Days in jerseys.  |   Teams.  |   All riders.  |   All riders by age.  |   All riders from.  |  

  |   Rookies.  |   Withdrawls.  |   Average speed.  |   GC.  |   Polka  |   Green  |   White  |   Summits. (In tour)  |   Miscellaneous.  |  

Stage 10 on July 11th. 2012
Pick a stage:  Pro  1  2  3  4  5  6  7  8  9  10  11  12  13  14  15  16  17  18  19  20  

After stage 10:    Bradley Wiggins    Fredrik Kessiakoff    Peter Sagan    Tejay Van Garderen  
  MâconBellegarde-sur-Valserine | Dist: 194.50km. | Winner: Thomas  Voeckler

Podium
2  Côte de Corlier Michael Mørkøvafter90.00 km.

HC  Col du Grand Colombier Thomas  Voecklerafter151.50 km.


Average speed for all riders in stage:  38,163 km./hr.

1
 Thomas  Voeckler  Europcar04h 46' 26"=40,742  km/h

2
 Michele Scarponi  Lampre-ISD04h 46' 29"+  00:00:03 =40,735  km/h

3
 Jens Voigt  Radioshack–Nissan04h 46' 33"+  00:00:07 =40,726  km/h

4  Luis León Sánchez  Rabobank04h 46' 49"+  00:00:23 =40,688  km/h

5  Dries Devenyns  Omega Pharma – Quick Step04h 46' 56"+  00:00:30 =40,671  km/h

6  Sandy Casar  FDJ – Big Mat04h 49' 10"+  00:02:44 =40,357  km/h

7  Egoi Martínez  Euskaltel-Euskadi04h 49' 10"+  00:02:44 =40,357  km/h

8  Pierre Rolland  Europcar04h 49' 10"+  00:02:44 =40,357  km/h

9  Jurgen Van Den Broeck  Lotto-Belisol04h 49' 10"+  00:02:44 =40,357  km/h

10  Dimitiri Fofonov  Astana Pro Team04h 49' 18"+  00:02:52 =40,339  km/h

11  Thibaut Pinot  FDJ – Big Mat04h 49' 42"+  00:03:16 =40,283  km/h

12  Cadel Evans  BMC04h 49' 42"+  00:03:16 =40,283  km/h

13  Bradley Wiggins  Sky Procycling04h 49' 42"+  00:03:16 =40,283  km/h

14  Nicolas Roche  AG2R La Mondiale04h 49' 42"+  00:03:16 =40,283  km/h

15  Vincenzo Nibali  Liquigas-Cannondale04h 49' 42"+  00:03:16 =40,283  km/h

16  Denis Menchov  Katusha04h 49' 42"+  00:03:16 =40,283  km/h

17  Alejandro Valverde  Movistar04h 49' 42"+  00:03:16 =40,283  km/h

18  Chris Froome  Sky Procycling04h 49' 42"+  00:03:16 =40,283  km/h

19  Rui Costa  Movistar04h 49' 42"+  00:03:16 =40,283  km/h

20  Jérôme Coppel  Saur-Sojasun04h 49' 42"+  00:03:16 =40,283  km/h

21  Maxime Monfort  Radioshack–Nissan04h 49' 42"+  00:03:16 =40,283  km/h

22  Janez Brajkovič  Astana Pro Team04h 49' 42"+  00:03:16 =40,283  km/h

23  Haimar  Zubeldía  Radioshack–Nissan04h 49' 42"+  00:03:16 =40,283  km/h

24  Andréas  Klöden  Radioshack–Nissan04h 49' 42"+  00:03:16 =40,283  km/h

25  Rein Taaramäe  Cofidis Le Credit En Ligne04h 49' 42"+  00:03:16 =40,283  km/h

26  Fränk Schleck  Radioshack–Nissan04h 49' 42"+  00:03:16 =40,283  km/h

27  Tejay Van Garderen  BMC04h 49' 59"+  00:03:33 =40,244  km/h

28  Laurens Ten Dam  Rabobank04h 50' 06"+  00:03:40 =40,228  km/h

29  Robert Kišerlovski  Astana Pro Team04h 50' 06"+  00:03:40 =40,228  km/h

30  Rafael Valls Ferri  Vacansoleil-DCM04h 50' 06"+  00:03:40 =40,228  km/h

31  Levi Leipheimer  Omega Pharma – Quick Step04h 50' 06"+  00:03:40 =40,228  km/h

32  Richie Porte  Sky Procycling04h 50' 06"+  00:03:40 =40,228  km/h

33  Ivan Basso  Liquigas-Cannondale04h 50' 06"+  00:03:40 =40,228  km/h

34  Christopher Horner  Radioshack–Nissan04h 50' 20"+  00:03:54 =40,195  km/h

35  Andriy Grivko  Astana Pro Team04h 50' 32"+  00:04:06 =40,168  km/h

36  Marcus Burghardt  BMC04h 50' 50"+  00:04:24 =40,126  km/h

37  Jelle Vanendert  Lotto-Belisol04h 54' 42"+  00:08:16 =39,600  km/h

38  Chris Anker Sørensen  Saxo Bank-Tinkoff Bank04h 55' 33"+  00:09:07 =39,486  km/h

39  Fabrice Jeandesboz  Saur-Sojasun04h 55' 33"+  00:09:07 =39,486  km/h

40  Michael Rogers  Sky Procycling04h 55' 33"+  00:09:07 =39,486  km/h

41  Jean-Christophe Peraud  AG2R La Mondiale04h 55' 33"+  00:09:07 =39,486  km/h

42  Matthieu Ladagnous  FDJ – Big Mat04h 55' 33"+  00:09:07 =39,486  km/h

43  Alexandre Vinokourov  Astana Pro Team04h 55' 33"+  00:09:07 =39,486  km/h

44  Giampaolo Caruso  Katusha04h 55' 33"+  00:09:07 =39,486  km/h

45  Yury  Trofimov  Katusha04h 55' 33"+  00:09:07 =39,486  km/h

46  Steven Kruijswijk  Rabobank04h 58' 07"+  00:11:41 =39,146  km/h

47  Philippe Gilbert  BMC04h 58' 07"+  00:11:41 =39,146  km/h

48  Juan José Cobo  Movistar04h 58' 07"+  00:11:41 =39,146  km/h

49  George Hincapie  BMC04h 58' 07"+  00:11:41 =39,146  km/h

50  Amaël Moinard  BMC04h 58' 07"+  00:11:41 =39,146  km/h

51  Michael Mørkøv  Saxo Bank-Tinkoff Bank04h 58' 07"+  00:11:41 =39,146  km/h

52  Stephen Cummings  BMC04h 58' 07"+  00:11:41 =39,146  km/h

53  Eduard Vorganov  Katusha04h 58' 07"+  00:11:41 =39,146  km/h

54  David Zabriskie  Garmin-Sharp-Barracuda04h 58' 07"+  00:11:41 =39,146  km/h

55  Yaroslav Popovych  Radioshack–Nissan04h 58' 07"+  00:11:41 =39,146  km/h

56  Peter Sagan  Liquigas-Cannondale04h 58' 51"+  00:12:25 =39,050  km/h

57  Marco Marzano  Lampre-ISD05h 01' 30"+  00:15:04 =38,706  km/h

58  Sylwester Szmyd  Liquigas-Cannondale05h 01' 30"+  00:15:04 =38,706  km/h

59  David Millar  Garmin-Sharp-Barracuda05h 01' 30"+  00:15:04 =38,706  km/h

60  Simon Gerrans  Orica-GreenEDGE05h 01' 30"+  00:15:04 =38,706  km/h

61  Dominik Nerz  Liquigas-Cannondale05h 01' 30"+  00:15:04 =38,706  km/h

62  Peter Velits  Omega Pharma – Quick Step05h 01' 30"+  00:15:04 =38,706  km/h

63  Guillaume Levarlet  Saur-Sojasun05h 01' 30"+  00:15:04 =38,706  km/h

64  David Moncoutié  Cofidis Le Credit En Ligne05h 01' 30"+  00:15:04 =38,706  km/h

65  Vladimir Karpets  Movistar05h 01' 30"+  00:15:04 =38,706  km/h

66  Vladimir Gusev  Katusha05h 01' 30"+  00:15:04 =38,706  km/h

67  Brice Feillu  Saur-Sojasun05h 01' 30"+  00:15:04 =38,706  km/h

68  Simone Stortoni  Lampre-ISD05h 01' 30"+  00:15:04 =38,706  km/h

69  Robert Gesink  Rabobank05h 01' 30"+  00:15:04 =38,706  km/h

70  Karsten Kroon  Saxo Bank-Tinkoff Bank05h 01' 30"+  00:15:04 =38,706  km/h

71  Johnny Hoogerland  Vacansoleil-DCM05h 01' 30"+  00:15:04 =38,706  km/h

72  Sérgio Paulinho  Saxo Bank-Tinkoff Bank05h 01' 30"+  00:15:04 =38,706  km/h

73  Yukiya  Arashiro  Europcar05h 01' 30"+  00:15:04 =38,706  km/h

74  Alessandro Vanotti  Liquigas-Cannondale05h 03' 52"+  00:17:26 =38,405  km/h

75  Edvald Boasson Hagen  Sky Procycling05h 03' 52"+  00:17:26 =38,405  km/h

76  Maxime Bouet  AG2R La Mondiale05h 05' 31"+  00:19:05 =38,198  km/h

77  Marco Marcato  Vacansoleil-DCM05h 05' 31"+  00:19:05 =38,198  km/h

78  Davide Malacarne  Europcar05h 05' 31"+  00:19:05 =38,198  km/h

79  Yauheni Hutarovich  FDJ – Big Mat05h 05' 31"+  00:19:05 =38,198  km/h

80  Jérôme Pineau  Omega Pharma – Quick Step05h 05' 31"+  00:19:05 =38,198  km/h

81  Sylvain Chavanel  Omega Pharma – Quick Step05h 05' 31"+  00:19:05 =38,198  km/h

82  Arthur Vichot  FDJ – Big Mat05h 05' 31"+  00:19:05 =38,198  km/h

83  Jérémy Roy  FDJ – Big Mat05h 05' 31"+  00:19:05 =38,198  km/h

84  Giovanni Bernaudeau  Europcar05h 05' 31"+  00:19:05 =38,198  km/h

85  Sébastien Minard  AG2R La Mondiale05h 05' 31"+  00:19:05 =38,198  km/h

86  Christophe Riblon  AG2R La Mondiale05h 05' 31"+  00:19:05 =38,198  km/h

87  Joan Horrach  Katusha05h 05' 31"+  00:19:05 =38,198  km/h

88  Pierrick  Fédrigo  FDJ – Big Mat05h 05' 31"+  00:19:05 =38,198  km/h

89  Christian Vandevelde  Garmin-Sharp-Barracuda05h 05' 31"+  00:19:05 =38,198  km/h

90  Dan Martin  Garmin-Sharp-Barracuda05h 05' 31"+  00:19:05 =38,198  km/h

91  Michael Schär  BMC05h 05' 31"+  00:19:05 =38,198  km/h

92  Anthony Roux  FDJ – Big Mat05h 13' 53"+  00:27:27 =37,179  km/h

93  Koen De Kort  Argos–Shimano05h 13' 53"+  00:27:27 =37,179  km/h

94  Martin Velits  Omega Pharma – Quick Step05h 13' 53"+  00:27:27 =37,179  km/h

95  Bram Tankink  Rabobank05h 13' 53"+  00:27:27 =37,179  km/h

96  Alessandro Petacchi  Lampre-ISD05h 13' 53"+  00:27:27 =37,179  km/h

97  Francis De Greef  Lotto-Belisol05h 13' 53"+  00:27:27 =37,179  km/h

98  Kristjan Koren  Liquigas-Cannondale05h 13' 53"+  00:27:27 =37,179  km/h

99  Fredrik Kessiakoff  Astana Pro Team05h 13' 53"+  00:27:27 =37,179  km/h

100  Cédric Pineau  FDJ – Big Mat05h 13' 53"+  00:27:27 =37,179  km/h

101  Roy Curvers  Argos–Shimano05h 13' 53"+  00:27:27 =37,179  km/h

102  Manuel Quinziato  BMC05h 13' 53"+  00:27:27 =37,179  km/h

103  Danilo Hondo  Lampre-ISD05h 13' 53"+  00:27:27 =37,179  km/h

104  Yuriy Krivtsov  Lampre-ISD05h 13' 53"+  00:27:27 =37,179  km/h

105  Federico Canuti  Liquigas-Cannondale05h 13' 53"+  00:27:27 =37,179  km/h

106  Adam Hansen  Lotto-Belisol05h 13' 53"+  00:27:27 =37,179  km/h

107  Stuart O'Grady  Orica-GreenEDGE05h 13' 53"+  00:27:27 =37,179  km/h

108  Nicki Sørensen  Saxo Bank-Tinkoff Bank05h 13' 53"+  00:27:27 =37,179  km/h

109  Fabian Cancellara  Radioshack–Nissan05h 13' 53"+  00:27:27 =37,179  km/h

110  Anders Lund  Saxo Bank-Tinkoff Bank05h 13' 53"+  00:27:27 =37,179  km/h

111  Albert Timmer  Argos–Shimano05h 13' 53"+  00:27:27 =37,179  km/h

112  Yann Huguet  Argos–Shimano05h 13' 53"+  00:27:27 =37,179  km/h

113  Lieuwe Westra  Vacansoleil-DCM05h 13' 53"+  00:27:27 =37,179  km/h

114  Luis Angel Mate  Cofidis Le Credit En Ligne05h 13' 53"+  00:27:27 =37,179  km/h

115  Samuel Dumoulin  Cofidis Le Credit En Ligne05h 13' 53"+  00:27:27 =37,179  km/h

116  Nicolas Edet  Cofidis Le Credit En Ligne05h 13' 53"+  00:27:27 =37,179  km/h

117  Jorge Azanza  Euskaltel-Euskadi05h 13' 53"+  00:27:27 =37,179  km/h

118  Ruben Perez  Euskaltel-Euskadi05h 13' 53"+  00:27:27 =37,179  km/h

119  Lars Bak  Lotto-Belisol05h 13' 53"+  00:27:27 =37,179  km/h

120  Daniel Oss  Liquigas-Cannondale05h 13' 53"+  00:27:27 =37,179  km/h

121  Jonathan Cantwell  Saxo Bank-Tinkoff Bank05h 13' 53"+  00:27:27 =37,179  km/h

122  Christian Knees  Sky Procycling05h 13' 53"+  00:27:27 =37,179  km/h

123  Matthew Goss  Orica-GreenEDGE05h 13' 53"+  00:27:27 =37,179  km/h

124  André Greipel  Lotto-Belisol05h 13' 53"+  00:27:27 =37,179  km/h

125  Jürgen Roelandts  Lotto-Belisol05h 13' 53"+  00:27:27 =37,179  km/h

126  Maxim Iglinskiy  Astana Pro Team05h 13' 53"+  00:27:27 =37,179  km/h

127  Vasil Kiryienka  Movistar05h 13' 53"+  00:27:27 =37,179  km/h

128  Vincent Jérôme  Europcar05h 13' 53"+  00:27:27 =37,179  km/h

129  Cyril Gautier  Europcar05h 13' 53"+  00:27:27 =37,179  km/h

130  Mikaël Cherel  AG2R La Mondiale05h 13' 53"+  00:27:27 =37,179  km/h

131  Borut Božič  Astana Pro Team05h 13' 53"+  00:27:27 =37,179  km/h

132  Andrey Kashechkin  Astana Pro Team05h 13' 53"+  00:27:27 =37,179  km/h

133  Christophe Kern  Europcar05h 13' 53"+  00:27:27 =37,179  km/h

134  Yohann Gène  Europcar05h 13' 53"+  00:27:27 =37,179  km/h

135  Cyril Lemoine  Saur-Sojasun05h 13' 53"+  00:27:27 =37,179  km/h

136  Luca Paolini  Katusha05h 13' 53"+  00:27:27 =37,179  km/h

137  Kris Boeckmans  Vacansoleil-DCM05h 13' 53"+  00:27:27 =37,179  km/h

138  Bert Grabsch  Omega Pharma – Quick Step05h 18' 21"+  00:31:55 =36,658  km/h

139  Michael Albasini  Orica-GreenEDGE05h 18' 21"+  00:31:55 =36,658  km/h

140  Juan José Haedo  Saxo Bank-Tinkoff Bank05h 18' 21"+  00:31:55 =36,658  km/h

141  Marcel Sieberg  Lotto-Belisol05h 18' 21"+  00:31:55 =36,658  km/h

142  Matthieu Sprick  Argos–Shimano05h 18' 21"+  00:31:55 =36,658  km/h

143  Patrick Gretsch  Argos–Shimano05h 18' 21"+  00:31:55 =36,658  km/h

144  Julien Fouchard  Cofidis Le Credit En Ligne05h 18' 21"+  00:31:55 =36,658  km/h

145  Brett Lancaster  Orica-GreenEDGE05h 18' 21"+  00:31:55 =36,658  km/h

146  Tyler Farrar  Garmin-Sharp-Barracuda05h 18' 21"+  00:31:55 =36,658  km/h

147  Kenny van Hummel  Vacansoleil-DCM05h 18' 21"+  00:31:55 =36,658  km/h

148  Tom Veelers  Argos–Shimano05h 18' 21"+  00:31:55 =36,658  km/h

149  Sébastien Hinault  AG2R La Mondiale05h 18' 21"+  00:31:55 =36,658  km/h

150  Blel Kadri  AG2R La Mondiale05h 18' 21"+  00:31:55 =36,658  km/h

151  Daryl Impey  Orica-GreenEDGE05h 18' 21"+  00:31:55 =36,658  km/h

152  Nick Nuyens  Saxo Bank-Tinkoff Bank05h 18' 21"+  00:31:55 =36,658  km/h

153  Rob Ruijgh  Vacansoleil-DCM05h 18' 21"+  00:31:55 =36,658  km/h

154  Kevin De Weert  Omega Pharma – Quick Step05h 18' 21"+  00:31:55 =36,658  km/h

155  Bauke Mollema  Rabobank05h 18' 21"+  00:31:55 =36,658  km/h

156  Julien Simon  Saur-Sojasun05h 18' 21"+  00:31:55 =36,658  km/h

157  Gustav-Erik Larsson  Vacansoleil-DCM05h 18' 21"+  00:31:55 =36,658  km/h

158  Mark Renshaw  Rabobank05h 18' 21"+  00:31:55 =36,658  km/h

159  Pablo Urtasun  Euskaltel-Euskadi05h 18' 21"+  00:31:55 =36,658  km/h

160  Jimmy Engoulvent  Saur-Sojasun05h 18' 21"+  00:31:55 =36,658  km/h

161  Pieter Weening  Orica-GreenEDGE05h 18' 21"+  00:31:55 =36,658  km/h

162  Mark Cavendish  Sky Procycling05h 18' 21"+  00:31:55 =36,658  km/h

163  Aliaksandr Kuchynski  Katusha05h 18' 21"+  00:31:55 =36,658  km/h

164  Jan Ghyselinck  Cofidis Le Credit En Ligne05h 18' 21"+  00:31:55 =36,658  km/h

165  Bernhard Eisel  Sky Procycling05h 18' 21"+  00:31:55 =36,658  km/h

166  Grega Bole  Lampre-ISD05h 18' 21"+  00:31:55 =36,658  km/h

167  Gregory Henderson  Lotto-Belisol05h 18' 21"+  00:31:55 =36,658  km/h

168  Rubén Plaza  Movistar05h 18' 21"+  00:31:55 =36,658  km/h

169  Baden Cooke  Orica-GreenEDGE05h 18' 21"+  00:31:55 =36,658  km/h

170  Romain Zingle  Cofidis Le Credit En Ligne05h 18' 21"+  00:31:55 =36,658  km/h

171  Jean-Marc Marino  Saur-Sojasun05h 18' 21"+  00:31:55 =36,658  km/h

172  Tony Gallopin  Radioshack–Nissan05h 18' 21"+  00:31:55 =36,658  km/h

173  Johan Vansummeren  Garmin-Sharp-Barracuda05h 18' 21"+  00:31:55 =36,658  km/h

174  Sebastian Langeveld  Orica-GreenEDGE05h 18' 21"+  00:31:55 =36,658  km/h

175  Gorka Izagirre  Euskaltel-Euskadi05h 18' 21"+  00:31:55 =36,658  km/h


Withdrawls: 3
 RiderTeamReason
45   Matthew Lloyd Lampre-ISDDid not start
82   Rémy Di Grégorio Cofidis Le Credit En LigneDid not start
196   Tony Martin Omega Pharma – Quick StepDid not start
Todays birthdays.

1884 • Vincenzo Borgarello
1889 • Emile Bonnefoi
1889 • Auguste Denizot
1890 • Maurice Petit
1904 • Pierino Ferioli
1905 • Vincent Carrara
1910 • Antoon Van Schendel
1925 • Georges Meunier
1945 • Gérard Besnard
1950 • Wim Kelleners
1960 • Ivan Ivanov
1960 • Pierre-Henri Menthéour
1962 • Giovanni Bottoia
1964 • Flavio Giupponi
1974 • Benoit Salmon
1977 • Iñigo Landaluze
1977 • Svein Tuft
1979 • Rubens Bertogliati
1985 • Matthew Busche

 

Optimized for Chrome - Edge
and Opera browsers.